Wind_Speed
16 18 19 20 21 23 25 26 28 28 28 29 30 31 32 33 34 35 36 37 38 39 40 41 41 42 42 42 40 40 39 38 39 39 39 37 35 35 34 32 30 29 28 29
16 17 18 20 21 23 24 25 26 27 27 29 30 31 32 33 35 36 37 37 39 40 40 41 41 41 41 42 43 42 41 41 41 41 40 39 38 37 37 35 34 33 32 32
16 16 18 19 20 21 22 23 25 26 27 29 30 31 32 33 33 35 35 36 38 39 39 40 40 41 41 41 42 41 41 41 40 40 40 39 38 38 37 37 36 35 34 33
14 15 16 17 18 19 21 22 23 24 25 27 28 29 30 31 31 32 33 34 35 35 36 37 37 38 38 38 39 38 38 38 39 39 39 39 39 38 37 37 36 36 35 35
12 13 14 15 16 18 19 20 20 22 24 25 25 27 27 27 27 28 29 31 31 31 33 33 32 32 32 33 32 33 34 34 35 36 36 36 36 36 37 36 36 36 36 35
10 11 12 14 15 17 18 19 20 21 22 22 23 23 24 24 23 25 26 26 27 27 28 27 27 26 26 26 27 29 30 31 31 32 32 33 33 34 35 35 34 34 34 34
8 10 12 14 15 17 18 19 20 20 20 20 20 20 21 21 21 21 21 22 22 23 22 21 21 21 21 21 22 23 24 25 26 27 28 29 30 31 32 32 32 32 32 32
8 11 13 14 15 16 17 18 18 19 19 18 18 18 18 19 19 19 19 19 19 20 19 17 17 17 17 18 18 18 17 19 21 22 22 23 25 26 27 28 28 29 29 30
9 11 13 14 15 15 16 16 17 17 16 15 15 15 15 16 17 18 18 18 18 17 16 15 14 13 13 14 14 13 13 14 15 16 17 18 20 21 22 22 23 24 25 27
10 11 13 13 14 14 15 16 16 15 15 14 13 13 14 15 16 16 17 17 18 16 16 14 13 12 11 12 11 10 10 9 9 10 12 13 14 15 16 17 18 19 21 23
11 13 13 13 14 14 15 15 15 15 15 14 14 13 14 15 15 16 17 17 18 18 17 16 15 13 12 12 11 10 8 6 6 6 7 8 9 9 11 13 14 16 17 18
13 13 14 14 14 14 15 15 14 14 16 15 14 14 15 16 16 17 18 18 18 18 19 19 17 16 15 14 13 12 11 9 8 6 6 6 5 6 7 8 10 12 13 14
14 15 15 15 15 15 15 15 14 14 15 15 15 15 15 17 18 18 18 18 19 18 19 19 19 19 19 17 15 14 13 12 11 10 9 7 7 6 5 4 4 5 6 8
15 15 16 16 15 15 15 15 14 14 15 15 16 16 16 17 18 19 19 19 19 19 19 19 19 19 19 19 18 16 16 15 14 13 12 11 9 8 7 6 5 4 4 5
15 16 16 16 16 15 15 15 14 14 15 15 15 16 16 17 18 19 20 20 20 20 20 20 20 20 20 20 20 19 18 17 17 15 15 14 12 11 11 10 8 6 4 4
15 16 17 16 16 16 16 15 14 14 15 15 15 15 16 17 18 19 20 20 20 21 21 22 21 21 21 21 20 20 19 19 18 17 17 16 14 13 13 13 12 11 9 8
14 15 16 16 17 16 16 16 14 14 14 14 15 15 15 17 18 18 19 20 20 20 21 22 22 22 22 21 21 21 20 19 19 19 19 18 17 15 15 14 13 12 11 11
13 15 16 16 16 16 16 16 15 14 14 14 14 14 15 16 17 18 19 19 20 21 21 22 23 23 23 23 22 21 21 20 20 20 20 19 18 17 16 15 14 13 12 12
12 14 15 15 16 16 16 15 15 14 13 13 14 14 14 15 16 17 18 19 19 20 21 22 22 23 23 23 23 23 22 21 20 20 20 20 19 19 17 16 15 14 14 13
9 11 13 14 14 15 15 15 15 14 13 13 13 14 14 14 15 16 16 17 18 18 19 20 21 22 22 23 23 23 22 22 21 21 20 20 20 19 19 18 17 16 15 15
7 9 11 12 13 13 13 14 14 14 13 12 12 12 13 13 14 14 15 15 16 17 18 19 20 21 21 22 22 23 23 22 22 22 21 21 20 20 20 19 19 18 17 16
6 7 9 10 11 12 12 12 12 13 13 12 11 10 11 11 12 12 13 14 15 15 16 17 18 19 20 21 22 22 23 23 23 22 22 21 21 21 20 20 20 19 18 18
6 6 7 8 9 10 11 11 11 11 11 11 10 10 9 9 10 11 12 12 13 14 15 16 17 18 19 20 20 21 22 23 23 23 22 22 22 21 21 20 20 20 20 19
6 6 7 7 8 8 9 9 10 10 9 9 9 9 9 9 9 10 10 11 11 13 14 15 16 17 18 18 19 20 20 21 22 22 23 22 22 22 22 21 21 20 20 20
7 7 7 7 7 8 8 8 8 8 8 8 7 7 7 7 8 8 9 10 10 11 12 13 14 15 16 17 18 19 19 20 20 21 22 22 22 22 22 22 21 21 20 20
8 8 8 8 8 8 8 8 8 8 7 7 7 7 7 7 7 8 8 9 10 11 11 12 13 14 15 16 16 17 18 18 19 20 21 21 22 22 22 22 21 21 21 20
Wind_Direction
254 263 271 278 282 285 286 287 287 288 288 288 288 288 288 287 286 285 283 282 280 279 278 276 275 274 272 270 268 266 265 262 261 259 258 257 258 258 259 258 258 260 262 264
260 270 278 283 287 289 290 289 290 290 290 290 289 289 290 290 289 287 286 285 282 281 280 279 278 277 275 272 270 268 267 264 262 261 259 257 256 255 256 255 257 258 259 263
269 278 285 290 293 294 294 294 294 293 294 293 293 292 292 292 292 291 289 287 285 283 282 282 279 277 275 274 271 270 268 265 263 263 260 258 257 256 255 255 254 256 258 261
277 286 292 295 299 302 302 301 299 298 298 298 297 295 295 296 295 294 294 292 291 289 287 285 281 279 278 276 273 270 269 266 265 265 263 261 259 257 256 256 255 255 257 259
287 294 299 304 307 309 309 309 307 305 303 301 300 299 301 299 297 297 297 295 294 293 292 289 285 283 280 277 274 270 269 268 266 264 263 262 261 258 258 257 255 255 255 256
297 306 311 312 313 314 314 312 310 308 306 305 306 306 307 307 305 303 302 300 300 299 297 295 292 288 287 283 279 275 272 270 267 263 262 262 261 259 258 257 256 255 255 256
315 320 321 319 319 320 320 320 318 316 314 313 312 311 315 318 319 319 317 314 312 312 310 307 302 297 294 292 289 282 275 270 268 265 263 262 262 261 259 257 256 255 256 256
333 330 328 327 326 325 325 326 326 325 323 320 319 321 326 328 332 334 334 333 331 329 327 320 314 309 304 302 298 294 284 276 270 267 266 266 264 263 260 259 259 258 257 256
344 338 336 334 332 330 333 335 335 335 336 335 336 338 340 342 347 349 348 346 343 342 342 338 335 328 323 317 310 306 299 286 277 272 270 271 268 265 263 262 261 259 257 255
354 347 345 343 342 342 342 346 349 352 355 357 356 354 356 0 3 2 1 1 3 1 1 360 354 351 346 342 337 323 309 300 291 283 277 277 276 270 264 262 262 260 258 257
5 359 357 357 356 354 354 356 360 5 7 9 10 12 11 12 13 13 12 13 17 19 19 18 18 19 18 16 11 8 360 347 335 315 301 295 289 281 272 267 264 263 262 259
12 9 9 8 7 4 2 5 10 14 16 19 21 24 21 20 19 20 22 24 26 29 31 31 31 31 30 26 22 23 23 21 16 4 350 339 323 306 294 277 267 263 260 260
19 18 19 18 15 12 11 13 18 21 23 26 28 30 29 28 27 28 28 29 30 31 32 32 34 33 32 32 32 32 32 31 32 28 20 14 6 356 344 328 303 281 271 265
25 25 25 23 21 19 19 22 26 27 29 33 36 36 37 35 35 35 33 33 33 33 34 33 33 34 33 33 34 36 38 37 37 34 31 29 26 20 14 7 356 334 309 293
28 28 27 25 24 24 24 26 28 30 32 37 40 40 40 38 37 37 36 36 36 38 38 37 38 38 38 37 38 39 39 39 39 39 37 36 36 34 28 25 22 15 357 337
31 30 28 27 26 26 26 27 30 33 34 37 39 40 40 38 37 37 37 38 40 41 42 42 42 41 40 40 39 39 38 37 37 38 38 38 38 36 33 31 29 27 23 14
31 30 28 28 27 28 29 30 34 36 38 39 39 40 40 39 39 40 42 43 43 43 44 45 45 44 43 41 40 40 39 39 40 41 41 39 38 37 35 31 27 24 20 14
30 29 28 29 29 31 31 33 35 38 40 41 42 42 42 42 43 44 45 46 46 46 46 46 45 44 43 41 41 40 40 41 41 40 39 38 37 36 33 31 29 24 18 11
29 28 27 28 30 32 33 34 36 38 41 42 43 44 45 45 46 47 48 47 46 46 46 45 45 44 42 41 40 39 39 39 38 37 36 35 34 32 31 28 26 22 19 14
23 25 26 27 29 30 32 35 37 38 42 42 45 46 47 46 47 48 48 47 46 45 44 43 42 41 39 38 37 37 37 37 37 35 34 33 32 31 30 29 26 24 21 18
11 16 20 23 26 28 29 32 34 37 38 42 45 46 45 45 45 46 46 44 43 42 41 39 38 37 37 36 35 35 34 35 34 34 33 32 31 30 30 30 29 26 24 22
356 4 9 13 18 22 24 28 32 35 38 41 43 43 42 41 42 43 42 40 39 37 36 35 34 34 33 34 33 33 33 32 32 32 32 32 31 31 31 31 30 28 27 26
337 348 354 360 7 12 17 22 26 29 34 38 39 39 38 38 38 40 39 37 35 34 33 32 32 31 31 31 32 31 31 32 32 31 31 31 31 31 30 30 30 30 30 30
315 326 336 343 350 359 5 11 17 22 27 30 32 33 35 37 36 36 34 31 30 29 28 28 28 28 27 28 29 29 29 29 30 30 30 31 31 30 30 30 30 31 32 33
296 307 317 325 332 341 349 356 2 8 14 19 20 21 23 25 26 25 25 24 22 21 21 21 22 22 23 24 25 26 27 27 27 28 28 29 30 30 30 31 32 32 33 34
282 291 299 307 316 323 330 337 345 351 355 359 5 7 9 9 9 11 12 13 14 13 12 13 14 14 15 17 19 21 23 24 24 25 26 27 28 29 30 31 32 33 34 35
Height
5897 5898 5897 5896 5895 5893 5891 5888 5886 5884 5882 5880 5877 5875 5873 5870 5868 5865 5863 5861 5859 5856 5854 5852 5850 5849 5847 5847 5846 5846 5847 5848 5849 5850 5851 5852 5854 5855 5856 5857 5857 5858 5859 5860
5896 5894 5894 5892 5891 5888 5886 5884 5881 5879 5876 5873 5870 5868 5865 5863 5860 5857 5854 5851 5849 5846 5844 5842 5840 5838 5836 5835 5835 5835 5835 5837 5838 5840 5841 5843 5844 5846 5847 5849 5849 5850 5851 5853
5892 5892 5890 5889 5886 5884 5881 5879 5875 5873 5870 5867 5864 5862 5858 5855 5852 5849 5845 5842 5839 5836 5834 5831 5829 5827 5825 5824 5823 5824 5825 5826 5827 5829 5830 5833 5835 5836 5838 5840 5841 5842 5843 5845
5890 5888 5887 5885 5882 5879 5877 5874 5870 5867 5864 5861 5859 5855 5852 5848 5845 5841 5837 5834 5830 5827 5824 5821 5818 5816 5814 5813 5813 5813 5814 5815 5816 5818 5820 5822 5824 5827 5828 5830 5832 5834 5835 5836
5888 5886 5884 5882 5879 5876 5873 5869 5866 5863 5860 5856 5853 5850 5847 5842 5839 5835 5830 5826 5822 5819 5815 5812 5809 5806 5805 5804 5803 5803 5804 5805 5806 5807 5809 5812 5814 5816 5818 5820 5823 5825 5826 5828
5885 5884 5881 5879 5876 5873 5870 5866 5863 5859 5855 5852 5848 5845 5841 5837 5833 5829 5824 5820 5816 5812 5808 5804 5801 5798 5797 5796 5795 5795 5795 5796 5797 5798 5800 5802 5804 5806 5808 5810 5813 5815 5817 5819
5883 5882 5879 5876 5873 5870 5867 5864 5860 5856 5851 5848 5844 5840 5837 5832 5828 5824 5820 5815 5811 5806 5802 5799 5796 5793 5792 5790 5789 5788 5788 5788 5789 5790 5792 5793 5795 5797 5799 5801 5804 5806 5808 5810
5882 5880 5877 5874 5871 5868 5864 5861 5858 5853 5848 5845 5841 5837 5834 5829 5825 5821 5816 5812 5808 5803 5799 5796 5793 5790 5788 5786 5784 5783 5782 5782 5783 5784 5785 5786 5788 5789 5791 5793 5795 5797 5799 5801
5881 5879 5875 5872 5869 5866 5862 5858 5855 5851 5846 5842 5838 5835 5831 5827 5824 5819 5815 5810 5806 5802 5798 5794 5791 5788 5786 5784 5782 5780 5779 5778 5778 5779 5780 5780 5781 5782 5784 5785 5787 5789 5791 5793
5880 5878 5874 5871 5868 5864 5861 5857 5853 5849 5845 5841 5837 5834 5831 5827 5823 5819 5815 5810 5806 5802 5798 5794 5791 5788 5786 5783 5780 5779 5777 5776 5776 5776 5776 5776 5776 5777 5778 5779 5781 5782 5784 5786
5879 5877 5874 5870 5866 5863 5860 5856 5852 5848 5844 5841 5837 5836 5831 5827 5824 5820 5816 5812 5807 5803 5799 5795 5792 5789 5786 5784 5781 5779 5777 5776 5775 5774 5774 5773 5773 5773 5774 5775 5776 5777 5778 5779
5879 5876 5873 5869 5866 5862 5859 5856 5853 5849 5845 5841 5838 5838 5832 5828 5825 5821 5817 5813 5809 5805 5801 5798 5794 5791 5788 5785 5782 5780 5778 5777 5775 5774 5773 5773 5772 5772 5772 5772 5772 5773 5773 5774
5880 5877 5873 5870 5868 5864 5860 5856 5853 5850 5847 5843 5840 5840 5834 5830 5827 5823 5819 5816 5812 5808 5805 5801 5797 5794 5791 5788 5785 5782 5780 5778 5777 5776 5774 5773 5772 5771 5771 5770 5770 5770 5770 5771
5880 5877 5875 5872 5868 5864 5860 5857 5854 5852 5849 5845 5842 5840 5836 5833 5829 5826 5822 5818 5815 5811 5808 5804 5801 5797 5794 5791 5788 5785 5783 5781 5779 5777 5775 5774 5772 5771 5771 5770 5770 5769 5769 5769
5882 5878 5875 5872 5869 5865 5862 5859 5856 5854 5851 5848 5845 5842 5839 5836 5833 5829 5825 5822 5818 5814 5811 5807 5804 5801 5797 5794 5791 5788 5786 5784 5782 5780 5778 5776 5774 5773 5772 5770 5769 5768 5768 5767
5883 5880 5877 5874 5870 5867 5864 5861 5858 5856 5853 5850 5847 5845 5842 5839 5835 5832 5828 5825 5822 5818 5815 5811 5808 5804 5801 5798 5795 5792 5790 5787 5785 5783 5780 5778 5776 5775 5773 5771 5770 5769 5768 5767
5884 5882 5879 5876 5872 5869 5867 5864 5860 5858 5855 5853 5850 5848 5844 5841 5838 5835 5832 5829 5825 5822 5819 5815 5812 5809 5806 5802 5799 5797 5794 5791 5788 5786 5783 5781 5779 5777 5775 5773 5771 5770 5768 5767
5886 5883 5880 5878 5875 5872 5871 5865 5863 5860 5858 5855 5852 5850 5847 5844 5842 5838 5835 5832 5829 5826 5823 5820 5817 5813 5810 5807 5804 5801 5798 5795 5792 5789 5787 5784 5781 5779 5777 5775 5773 5771 5769 5767
5887 5885 5882 5880 5877 5874 5872 5868 5865 5862 5860 5858 5855 5852 5850 5847 5845 5842 5839 5836 5833 5831 5828 5824 5821 5818 5815 5812 5808 5805 5802 5799 5796 5793 5790 5787 5784 5781 5779 5776 5774 5771 5769 5767
5888 5886 5884 5881 5879 5876 5875 5871 5867 5866 5863 5860 5858 5855 5853 5850 5848 5846 5843 5840 5837 5835 5832 5829 5826 5823 5819 5816 5813 5809 5806 5803 5800 5796 5793 5790 5787 5784 5781 5778 5775 5772 5770 5767
5889 5887 5885 5883 5880 5878 5876 5872 5870 5868 5867 5862 5860 5858 5855 5853 5852 5849 5846 5843 5841 5838 5835 5833 5830 5827 5824 5820 5817 5814 5810 5807 5803 5800 5797 5793 5790 5787 5783 5780 5777 5774 5771 5768
5888 5887 5885 5883 5882 5882 5877 5874 5872 5870 5867 5864 5862 5860 5858 5856 5854 5851 5849 5847 5844 5841 5839 5836 5833 5830 5827 5824 5821 5817 5814 5810 5807 5803 5800 5796 5793 5790 5786 5783 5780 5776 5773 5769
5888 5887 5885 5885 5884 5881 5878 5875 5873 5871 5868 5866 5864 5862 5860 5858 5856 5854 5851 5849 5847 5844 5842 5839 5836 5833 5830 5827 5824 5821 5818 5814 5811 5807 5803 5800 5796 5793 5789 5786 5782 5779 5775 5772
5887 5886 5885 5883 5882 5880 5878 5876 5874 5872 5869 5867 5865 5863 5861 5859 5857 5855 5853 5851 5849 5847 5844 5842 5839 5836 5833 5830 5827 5824 5821 5818 5814 5811 5807 5803 5800 5796 5792 5789 5785 5782 5778 5775
5885 5884 5883 5882 5881 5880 5878 5876 5874 5872 5870 5868 5866 5864 5862 5860 5859 5857 5855 5853 5851 5848 5846 5844 5841 5838 5836 5833 5830 5827 5824 5821 5818 5814 5811 5807 5803 5799 5796 5792 5788 5785 5781 5778
5883 5882 5882 5881 5880 5879 5877 5876 5874 5872 5870 5868 5867 5865 5863 5861 5859 5857 5855 5854 5852 5849 5847 5845 5843 5840 5838 5835 5832 5829 5826 5823 5820 5817 5814 5810 5806 5803 5799 5795 5792 5788 5785 5781